This demonstration page uses our WeatherBlox Daily Observations layout. Learn more.

Left ArrowRight Arrow

38.20091, -84.87328

Hourly Observations for September 2, 2016

Temp ( °F °C ) Dew Point ( °F °C ) Humidity (%) Winds ( mph kmh ) Pressure ( in mb ) Visibility ( mi km ) Precip ( " mm )
12:53 am 00:53 Clear 66 18.9 55 12.8 68 68 VRB 6 9 30.06 1018 10 16 0.00 0.00
1:53 am 01:53 Clear 65 18.3 55 12.8 70 70 N 6 9 30.06 1018 10 16 0.00 0.00
2:53 am 02:53 Clear 64 17.8 56 13.3 75 75 N 5 7 30.05 1018 10 16 0.00 0.00
3:53 am 03:53 Clear 63 17.2 56 13.3 78 78 N 6 9 30.05 1018 10 16 0.00 0.00
4:53 am 04:53 Clear 62 16.7 56 13.3 80 80 NNE 5 7 30.06 1018 10 16 0.00 0.00
5:53 am 05:53 Clear 62 16.7 56 13.3 80 80 N 7 11 30.07 1018 10 16 0.00 0.00
6:53 am 06:53 Clear 61 16.1 56 13.3 84 84 NNE 6 9 30.07 1018 10 16 0.00 0.00
7:53 am 07:53 Sunny 62 16.7 55 12.8 78 78 NNE 9 15 30.08 1019 10 16 0.00 0.00
8:53 am 08:53 Sunny 65 18.3 56 13.3 73 73 NE 12 19 30.09 1019 10 16 0.00 0.00
9:53 am 09:53 Sunny 69 20.6 56 13.3 63 63 NE 10 17 30.09 1019 10 16 0.00 0.00
10:53 am 10:53 Sunny 73 22.8 55 12.8 53 53 ENE 14 22 30.09 1019 10 16 0.00 0.00
11:53 am 11:53 Sunny 75 23.9 54 12.2 48 48 ENE 14 22 30.10 1019 10 16 0.00 0.00
12:53 pm 12:53 Sunny 76 24.4 54 12.2 47 47 NE 14 22 30.09 1019 10 16 0.00 0.00
1:53 pm 13:53 Sunny 79 26.1 50 10 36 36 NNE 15 24 30.07 1018 10 16 0.00 0.00
2:53 pm 14:53 Mostly Sunny 81 27.2 52 11.1 37 37 NE 9 15 30.06 1018 10 16 0.00 0.00
3:53 pm 15:53 Sunny 82 27.8 50 10 33 33 NE 13 20 30.04 1017 10 16 0.00 0.00
4:53 pm 16:53 Partly Cloudy 79 26.1 51 10.6 38 38 NNE 12 19 30.04 1017 10 16 0.00 0.00
5:53 pm 17:53 Mostly Sunny 80 26.7 52 11.1 38 38 ENE 15 24 30.03 1017 10 16 0.00 0.00
6:53 pm 18:53 Sunny 78 25.6 53 11.7 42 42 NE 8 13 30.04 1017 10 16 0.00 0.00
7:53 pm 19:53 Sunny 75 23.9 53 11.7 46 46 NNE 6 9 30.04 1017 10 16 0.00 0.00
8:53 pm 20:53 Clear 72 22.2 54 12.2 53 53 NNE 5 7 30.06 1018 10 16 0.00 0.00
9:53 pm 21:53 Clear 71 21.7 54 12.2 55 55 NNE 5 7 30.07 1018 10 16 0.00 0.00
10:53 pm 22:53 Clear 69 20.6 55 12.8 61 61 NNE 6 9 30.08 1019 10 16 0.00 0.00
11:53 pm 23:53 Clear 68 20 55 12.8 63 63 NNE 3 6 30.08 1019 10 16 0.00 0.00

Powered by AerisWeather